DW9727 Weather Reports


Display with metric or nautical units.
time (UTC)temp
F
wind
direction
speed
MPH
gust
MPH
rain 1hr
in
rain 24hr
in
rain mn
in
humidity
%
barometer
mb
20260509085711 45 204 0.0 1.0 0.00 0.00 0.00 66 1006.7
20260509084711 45 204 0.0 3.0 0.00 0.00 0.00 65 1006.5
20260509083711 45 200 1.0 2.0 0.00 0.00 0.00 68 1006.5
20260509082710 45 261 2.0 2.0 0.00 0.00 0.00 69 1006.5
20260509075710 46 289 0.0 1.0 0.00 0.00 0.00 66 1006.4
20260509074711 47 289 0.0 2.0 0.00 0.00 0.00 66 1006.6
20260509073711 47 289 0.0 2.0 0.00 0.00 0.00 64 1006.6
20260509072710 47 289 1.0 1.0 0.00 0.00 0.00 63 1006.7
20260509071710 47 288 0.0 2.0 0.00 0.00 0.00 61 1006.8
20260509070710 48 289 0.0 0.0 0.00 0.00 0.00 58 1006.6
20260509065710 48 289 0.0 2.0 0.00 0.00 0.00 57 1006.7
20260509064710 48 288 0.0 2.0 0.00 0.00 0.00 55 1006.8
20260509063711 49 288 1.0 2.0 0.00 0.00 0.00 55 1006.9
20260509062711 49 288 0.0 0.0 0.00 0.00 0.00 54 1006.9
20260509060711 50 288 0.0 0.0 0.00 0.00 0.00 53 1007.1
20260509055710 50 288 0.0 0.0 0.00 0.00 0.00 53 1007.2
20260509054711 51 288 0.0 0.0 0.00 0.00 0.00 53 1007.3
20260509053710 51 288 0.0 0.0 0.00 0.00 0.00 53 1007.2
20260509052710 51 288 0.0 2.0 0.00 0.00 0.00 53 1007.3
20260509051711 52 288 0.0 3.0 0.00 0.00 0.00 53 1007.3
20260509050710 53 286 1.0 3.0 0.00 0.00 0.00 49 1007.3
20260509045710 53 265 0.0 2.0 0.00 0.00 0.00 49 1007.4
20260509042710 55 296 1.0 3.0 0.00 0.00 0.00 49 1007.1
20260509041710 56 305 1.0 3.0 0.00 0.00 0.00 48 1007.2
20260509040711 57 308 2.0 3.0 0.00 0.00 0.00 43 1007.1
20260509033710 58 317 3.0 3.0 0.00 0.00 0.00 41 1006.8
20260509032710 59 316 2.0 3.0 0.00 0.00 0.00 40 1006.7
20260509031710 60 322 2.0 3.0 0.00 0.00 0.00 39 1006.6
20260509030710 60 329 3.0 3.0 0.00 0.00 0.00 38 1006.5
20260509025710 61 0 3.0 5.0 0.00 0.00 0.00 37 1006.3
20260509024711 62 325 3.0 5.0 0.00 0.00 0.00 36 1006.3
20260509022710 62 327 4.0 7.0 0.00 0.00 0.00 36 1005.8
20260509021711 63 312 3.0 5.0 0.00 0.00 0.00 36 1005.5
20260509015710 65 313 3.0 5.0 0.00 0.00 0.00 33 1005.1
20260509011710 70 306 7.0 9.0 0.00 0.00 0.00 31 1004.8
20260509010710 71 313 5.0 9.0 0.00 0.00 0.00 32 1004.6
20260509003711 74 310 7.0 14.0 0.00 0.00 0.00 30 1004.6
20260509002711 74 302 9.0 14.0 0.00 0.00 0.00 28 1004.6
20260509001710 74 322 7.0 22.0 0.00 0.00 0.00 29 1004.7
20260508235710 74 312 15.0 26.0 0.00 0.00 0.00 27 1004.9
20260508234711 74 314 16.0 23.0 0.00 0.00 0.00 26 1004.8
20260508233710 75 298 8.0 20.0 0.00 0.00 0.00 25 1004.7
20260508232710 76 319 11.0 17.0 0.00 0.00 0.00 25 1004.7
20260508230710 77 305 13.0 20.0 0.00 0.00 0.00 25 1004.7
20260508224710 76 286 13.0 22.0 0.00 0.00 0.00 27 1004.9
20260508223710 77 294 11.0 22.0 0.00 0.00 0.00 26 1004.7
20260508221710 76 325 10.0 17.0 0.00 0.00 0.00 28 1004.6
20260508220711 77 309 12.0 22.0 0.00 0.00 0.00 28 1004.7
20260508215710 78 313 9.0 20.0 0.00 0.00 0.00 30 1004.7
20260508214710 78 301 12.0 20.0 0.00 0.00 0.00 31 1004.8
20260508213710 78 314 12.0 22.0 0.00 0.00 0.00 31 1004.7
20260508212710 78 0 8.0 20.0 0.00 0.00 0.00 30 1004.7
20260508211711 78 322 11.0 20.0 0.00 0.00 0.00 31 1004.8
20260508210711 79 300 10.0 22.0 0.00 0.00 0.00 30 1004.8
20260508205711 79 300 12.0 18.0 0.00 0.00 0.00 27 1004.9
20260508203711 77 294 9.0 18.0 0.00 0.00 0.00 32 1005.2
20260508202711 74 271 9.0 15.0 0.00 0.00 0.00 33 1005.3
20260508201710 74 9 7.0 12.0 0.00 0.00 0.00 33 1005.4
20260508194710 75 302 9.0 12.0 0.00 0.00 0.00 33 1005.8
20260508193710 78 304 6.0 15.0 0.00 0.00 0.00 28 1005.8
20260508192710 77 269 7.0 16.0 0.00 0.00 0.00 28 1005.9
20260508191710 76 288 10.0 20.0 0.00 0.00 0.00 30 1006.2
20260508190710 74 322 10.0 14.0 0.00 0.00 0.00 35 1006.4
20260508185710 74 313 6.0 17.0 0.00 0.00 0.00 31 1006.4
20260508184711 75 321 10.0 24.0 0.00 0.00 0.00 31 1006.5
20260508183711 76 251 8.0 16.0 0.00 0.00 0.00 33 1006.5
20260508182710 75 294 6.0 14.0 0.00 0.00 0.00 33 1006.5
20260508181711 74 327 13.0 25.0 0.00 0.00 0.00 34 1006.7
20260508180710 75 209 11.0 16.0 0.00 0.00 0.00 32 1006.7
20260508175711 74 326 6.0 12.0 0.00 0.00 0.00 40 1006.8
20260508174711 73 260 5.0 12.0 0.00 0.00 0.00 36 1006.8
20260508173710 73 234 5.0 10.0 0.00 0.00 0.00 34 1006.8
20260508170711 73 218 7.0 13.0 0.00 0.00 0.00 34 1007.5
20260508165711 74 221 6.0 13.0 0.00 0.00 0.00 34 1007.7
20260508164710 73 333 2.0 10.0 0.00 0.00 0.00 38 1007.7
20260508163710 72 223 7.0 14.0 0.00 0.00 0.00 36 1007.9
20260508162711 72 218 4.0 14.0 0.00 0.00 0.00 37 1007.8
20260508161711 71 221 3.0 12.0 0.00 0.00 0.00 35 1007.9
20260508160711 71 220 7.0 13.0 0.00 0.00 0.00 39 1008.0
20260508155711 70 246 6.0 13.0 0.00 0.00 0.00 40 1008.1
20260508154711 70 277 3.0 9.0 0.00 0.00 0.00 41 1008.1
20260508152710 68 248 6.0 10.0 0.00 0.00 0.00 41 1008.3
20260508151711 68 261 4.0 8.0 0.00 0.00 0.00 41 1008.3
20260508150710 67 272 5.0 9.0 0.00 0.00 0.00 42 1008.4
20260508145711 67 237 4.0 7.0 0.00 0.00 0.00 45 1008.4
20260508144710 66 218 5.0 7.0 0.00 0.00 0.00 47 1008.6
20260508142710 65 234 2.0 5.0 0.00 0.00 0.00 49 1008.6
20260508141710 64 258 2.0 6.0 0.00 0.00 0.00 53 1008.7
20260508140710 64 261 1.0 2.0 0.00 0.00 0.00 52 1008.6
20260508135710 64 246 1.0 3.0 0.00 0.00 0.00 53 1008.6
20260508133710 62 217 0.0 3.0 0.00 0.00 0.00 55 1008.5
20260508131710 59 86 0.0 1.0 0.00 0.00 0.00 62 1008.5
20260508125710 55 121 0.0 0.0 0.00 0.00 0.00 66 1008.4
20260508124710 54 121 0.0 0.0 0.00 0.00 0.00 68 1008.4
20260508123710 53 121 0.0 0.0 0.00 0.00 0.00 69 1008.4
20260508122710 53 109 0.0 0.0 0.00 0.00 0.00 70 1008.2
20260508121710 53 109 0.0 0.0 0.00 0.00 0.00 69 1008.2
20260508120710 53 109 0.0 0.0 0.00 0.00 0.00 67 1008.0
20260508115710 53 109 0.0 0.0 0.00 0.00 0.00 67 1008.1
20260508114710 53 109 0.0 0.0 0.00 0.00 0.00 65 1008.2
20260508113710 53 109 0.0 0.0 0.00 0.00 0.00 64 1008.2
20260508112711 53 109 0.0 0.0 0.00 0.00 0.00 63 1008.1
20260508111710 53 109 0.0 2.0 0.00 0.00 0.00 64 1008.1
20260508110710 53 107 0.0 2.0 0.00 0.00 0.00 63 1008.1
20260508105710 53 99 0.0 1.0 0.00 0.00 0.00 62 1008.5
20260508104710 53 98 0.0 3.0 0.00 0.00 0.00 60 1008.4
20260508103710 53 157 1.0 6.0 0.00 0.00 0.00 60 1008.5
20260508101710 54 175 2.0 3.0 0.00 0.00 0.00 54 1008.9
20260508100710 54 130 3.0 7.0 0.00 0.00 0.00 55 1009.3
20260508095711 55 329 3.0 10.0 0.00 0.00 0.00 47 1009.6
20260508094711 53 65 4.0 9.0 0.00 0.00 0.00 54 1009.4
20260508093711 53 53 2.0 3.0 0.00 0.00 0.00 53 1009.5
20260508092711 53 65 0.0 0.0 0.00 0.00 0.00 49 1009.3
20260508091710 54 65 0.0 2.0 0.00 0.00 0.00 47 1009.0
20260508090710 54 73 0.0 3.0 0.00 0.00 0.00 45 1009.0